| time (UTC) | temp F | wind direction | speed knots | gust knots | rain 1hr in | rain 24hr in | rain mn in | humidity % | barometer mb |
| 20260902141515 | 69 | 32 | 0.0 | 0.9 | 0.00 | 0.52 | 0.03 | 98 | 1019.6 |
| 20260902140002 | 69 | 88 | 0.0 | 1.7 | 0.00 | 0.52 | 0.03 | 98 | 1019.3 |
| 20260902134502 | 69 | 268 | 0.0 | 1.7 | 0.00 | 0.53 | 0.03 | 98 | 1019.0 |
| 20260902133002 | 69 | 150 | 0.0 | 3.5 | 0.01 | 0.53 | 0.03 | 98 | 1019.0 |
| 20260902131559 | 69 | 309 | 0.0 | 0.9 | 0.01 | 0.53 | 0.03 | 98 | 1018.9 |
| 20260902130058 | 69 | 111 | 0.0 | 1.7 | 0.01 | 0.53 | 0.03 | 98 | 1018.5 |
| 20260902124605 | 69 | 108 | 0.0 | 1.7 | 0.01 | 0.53 | 0.03 | 98 | 1018.6 |
| 20260902123056 | 69 | 144 | 0.0 | 1.7 | 0.00 | 0.52 | 0.02 | 98 | 1018.6 |
| 20260902121602 | 69 | 24 | 0.0 | 0.9 | 0.01 | 0.52 | 0.02 | 98 | 1018.6 |
| 20260902120052 | 69 | 284 | 0.0 | 0.9 | 0.01 | 0.52 | 0.02 | 98 | 1018.4 |
| 20260902114552 | 69 | 283 | 0.0 | 0.9 | 0.01 | 0.52 | 0.02 | 98 | 1018.5 |
| 20260902113050 | 69 | 300 | 0.0 | 0.9 | 0.01 | 0.52 | 0.02 | 98 | 1018.1 |
| 20260902111549 | 69 | 142 | 0.0 | 0.9 | 0.00 | 0.51 | 0.01 | 98 | 1018.2 |
| 20260902110049 | 69 | 242 | 0.0 | 0.0 | 0.00 | 0.51 | 0.01 | 98 | 1018.3 |
| 20260902104551 | 69 | 242 | 0.0 | 1.7 | 0.00 | 0.51 | 0.01 | 98 | 1018.3 |
| 20260902103047 | 69 | 155 | 0.0 | 0.0 | 0.00 | 0.51 | 0.01 | 98 | 1018.2 |
| 20260902101552 | 69 | 130 | 0.0 | 1.7 | 0.00 | 0.51 | 0.01 | 98 | 1017.9 |
| 20260902100044 | 69 | 111 | 0.0 | 2.6 | 0.00 | 0.51 | 0.01 | 98 | 1017.8 |
| 20260902094543 | 70 | 342 | 0.0 | 1.7 | 0.00 | 0.51 | 0.01 | 98 | 1017.7 |
| 20260902093055 | 70 | 329 | 0.0 | 0.9 | 0.01 | 0.51 | 0.01 | 98 | 1017.6 |
| 20260902091550 | 70 | 310 | 0.0 | 1.7 | 0.01 | 0.51 | 0.01 | 98 | 1017.7 |
| 20260902090045 | 71 | 290 | 0.0 | 0.9 | 0.01 | 0.51 | 0.01 | 98 | 1017.5 |
| 20260902084549 | 70 | 178 | 0.0 | 0.0 | 0.01 | 0.51 | 0.01 | 98 | 1017.4 |
| 20260902083047 | 70 | 118 | 0.0 | 0.0 | 0.00 | 0.50 | 0.00 | 98 | 1017.3 |
| 20260902081535 | 70 | 126 | 0.0 | 1.7 | 0.00 | 0.50 | 0.00 | 98 | 1016.9 |
| 20260902080035 | 70 | 257 | 0.0 | 0.9 | 0.00 | 0.50 | 0.00 | 98 | 1016.9 |
| 20260902074534 | 70 | 269 | 0.0 | 0.9 | 0.00 | 0.50 | 0.00 | 98 | 1016.8 |
| 20260902073035 | 69 | 267 | 0.0 | 0.0 | 0.00 | 0.50 | 0.00 | 98 | 1016.9 |
| 20260902071537 | 69 | 267 | 0.0 | 0.0 | 0.00 | 0.50 | 0.00 | 98 | 1016.7 |
| 20260902070033 | 69 | 266 | 0.0 | 0.0 | 0.00 | 0.50 | 0.00 | 98 | 1016.7 |
| 20260902064533 | 69 | 266 | 0.0 | 0.0 | 0.00 | 0.50 | 0.00 | 98 | 1016.8 |
| 20260902063033 | 69 | 267 | 0.0 | 0.0 | 0.00 | 0.50 | 0.00 | 98 | 1016.6 |
| 20260902061543 | 69 | 266 | 0.0 | 0.0 | 0.00 | 0.50 | 0.00 | 98 | 1016.5 |
| 20260902060030 | 69 | 267 | 0.0 | 0.0 | 0.00 | 0.50 | 0.00 | 98 | 1016.7 |
| 20260902054534 | 69 | 267 | 0.0 | 0.0 | 0.00 | 0.50 | 0.00 | 98 | 1016.8 |
| 20260902053030 | 69 | 267 | 0.0 | 0.9 | 0.00 | 0.50 | 0.00 | 98 | 1016.7 |
| 20260902051526 | 69 | 34 | 0.0 | 0.9 | 0.00 | 0.50 | 0.00 | 98 | 1016.4 |
| 20260902050026 | 70 | 34 | 0.0 | 0.0 | 0.00 | 0.50 | 0.00 | 98 | 1016.6 |
| 20260902044524 | 70 | 34 | 0.0 | 0.0 | 0.00 | 0.51 | 0.00 | 98 | 1017.1 |
| 20260902043022 | 70 | 34 | 0.0 | 0.0 | 0.00 | 0.51 | 0.00 | 97 | 1017.0 |
| 20260902041520 | 70 | 75 | 0.0 | 0.9 | 0.00 | 0.51 | 0.00 | 98 | 1016.7 |
| 20260902040017 | 70 | 221 | 0.0 | 0.9 | 0.00 | 0.51 | 0.00 | 97 | 1016.7 |
| 20260902034519 | 70 | 253 | 0.0 | 0.0 | 0.00 | 0.52 | 0.51 | 97 | 1016.5 |
| 20260902033017 | 70 | 254 | 0.0 | 0.9 | 0.00 | 0.52 | 0.51 | 97 | 1016.4 |
| 20260902031516 | 70 | 255 | 0.0 | 1.7 | 0.00 | 0.52 | 0.51 | 97 | 1015.7 |
| 20260902030015 | 70 | 247 | 0.0 | 1.7 | 0.00 | 0.52 | 0.51 | 97 | 1015.5 |
| 20260902024521 | 70 | 257 | 0.0 | 2.6 | 0.00 | 0.52 | 0.51 | 97 | 1015.6 |
| 20260902023015 | 70 | 89 | 0.0 | 0.9 | 0.00 | 0.52 | 0.51 | 97 | 1014.5 |
| 20260902021514 | 71 | 104 | 0.0 | 0.9 | 0.00 | 0.52 | 0.51 | 96 | 1015.0 |
| 20260902020020 | 71 | 109 | 0.0 | 1.7 | 0.00 | 0.52 | 0.51 | 96 | 1015.0 |
| 20260902014514 | 71 | 247 | 0.0 | 2.6 | 0.00 | 0.52 | 0.51 | 96 | 1014.2 |
| 20260902013013 | 71 | 258 | 0.9 | 4.3 | 0.00 | 0.52 | 0.51 | 96 | 1013.9 |
| 20260902011512 | 71 | 233 | 0.0 | 0.0 | 0.00 | 0.52 | 0.51 | 96 | 1013.5 |
| 20260902010017 | 71 | 272 | 0.0 | 1.7 | 0.01 | 0.52 | 0.51 | 95 | 1013.6 |
| 20260902004512 | 71 | 54 | 0.0 | 0.9 | 0.01 | 0.52 | 0.51 | 95 | 1013.8 |
| 20260902003012 | 71 | 239 | 0.0 | 3.5 | 0.27 | 0.52 | 0.51 | 95 | 1013.7 |
| 20260902001511 | 72 | 219 | 0.0 | 0.0 | 0.43 | 0.52 | 0.51 | 93 | 1014.1 |
| 20260902000012 | 72 | 333 | 0.0 | 4.3 | 0.48 | 0.51 | 0.50 | 91 | 1014.7 |
| 20260901234510 | 73 | 280 | 3.5 | 12.2 | 0.48 | 0.51 | 0.50 | 90 | 1014.6 |
| 20260901233013 | 78 | 242 | 7.8 | 13.9 | 0.20 | 0.23 | 0.22 | 81 | 1013.5 |
| 20260901231508 | 81 | 205 | 0.0 | 1.7 | 0.05 | 0.08 | 0.07 | 91 | 1012.6 |
| 20260901230007 | 83 | 216 | 0.0 | 0.0 | 0.00 | 0.03 | 0.02 | 87 | 1012.6 |
| 20260901224506 | 85 | 213 | 0.0 | 0.9 | 0.00 | 0.03 | 0.02 | 84 | 1012.5 |
| 20260901223006 | 87 | 213 | 0.0 | 0.9 | 0.00 | 0.03 | 0.02 | 80 | 1012.4 |
| 20260901221505 | 88 | 233 | 0.0 | 2.6 | 0.00 | 0.03 | 0.02 | 76 | 1012.6 |
| 20260901220002 | 89 | 235 | 0.9 | 2.6 | 0.00 | 0.03 | 0.02 | 73 | 1012.7 |
| 20260901214605 | 89 | 222 | 0.9 | 3.5 | 0.00 | 0.03 | 0.02 | 71 | 1012.4 |
| 20260901213115 | 89 | 266 | 0.9 | 3.5 | 0.00 | 0.03 | 0.02 | 71 | 1012.8 |
| 20260901211558 | 90 | 167 | 0.9 | 4.3 | 0.00 | 0.03 | 0.02 | 69 | 1012.7 |
| 20260901210056 | 89 | 255 | 0.9 | 4.3 | 0.00 | 0.03 | 0.02 | 71 | 1012.6 |
| 20260901204552 | 89 | 227 | 0.9 | 6.1 | 0.00 | 0.03 | 0.02 | 71 | 1012.8 |
| 20260901203051 | 88 | 272 | 1.7 | 6.1 | 0.00 | 0.03 | 0.02 | 71 | 1012.9 |
| 20260901201548 | 88 | 220 | 5.2 | 10.4 | 0.00 | 0.03 | 0.02 | 70 | 1013.1 |
| 20260901200047 | 87 | 207 | 7.0 | 12.2 | 0.00 | 0.03 | 0.02 | 72 | 1013.0 |
| 20260901194544 | 87 | 267 | 2.6 | 7.0 | 0.00 | 0.05 | 0.02 | 73 | 1013.4 |
| 20260901193042 | 87 | 212 | 2.6 | 5.2 | 0.00 | 0.05 | 0.02 | 76 | 1013.5 |
| 20260901191541 | 86 | 226 | 0.9 | 3.5 | 0.00 | 0.05 | 0.02 | 77 | 1013.6 |
| 20260901190037 | 85 | 260 | 0.9 | 7.0 | 0.00 | 0.05 | 0.02 | 77 | 1013.6 |
| 20260901184544 | 86 | 256 | 0.0 | 4.3 | 0.00 | 0.05 | 0.02 | 76 | 1013.8 |
| 20260901183038 | 86 | 193 | 0.9 | 4.3 | 0.00 | 0.05 | 0.02 | 76 | 1014.0 |
| 20260901181536 | 86 | 252 | 0.9 | 3.5 | 0.00 | 0.05 | 0.02 | 76 | 1014.1 |
| 20260901180037 | 86 | 237 | 0.0 | 6.1 | 0.00 | 0.05 | 0.02 | 75 | 1014.1 |
| 20260901174533 | 86 | 210 | 2.6 | 6.1 | 0.00 | 0.05 | 0.02 | 74 | 1014.0 |
| 20260901173031 | 85 | 204 | 2.6 | 5.2 | 0.00 | 0.05 | 0.02 | 74 | 1013.9 |
| 20260901171526 | 85 | 235 | 2.6 | 10.4 | 0.00 | 0.05 | 0.02 | 77 | 1014.1 |
| 20260901170023 | 83 | 264 | 0.9 | 3.5 | 0.00 | 0.05 | 0.02 | 82 | 1014.4 |
| 20260901164520 | 81 | 252 | 0.0 | 3.5 | 0.00 | 0.05 | 0.02 | 84 | 1014.6 |
| 20260901163018 | 81 | 189 | 0.0 | 1.7 | 0.00 | 0.05 | 0.02 | 85 | 1014.8 |
| 20260901161513 | 80 | 161 | 0.0 | 0.0 | 0.00 | 0.05 | 0.02 | 88 | 1015.0 |
| 20260901160014 | 79 | 191 | 0.0 | 1.7 | 0.00 | 0.05 | 0.02 | 92 | 1015.3 |
| 20260901154511 | 78 | 219 | 0.0 | 1.7 | 0.00 | 0.05 | 0.02 | 91 | 1015.4 |
| 20260901153010 | 78 | 238 | 0.0 | 0.9 | 0.00 | 0.05 | 0.02 | 92 | 1015.5 |
| 20260901151510 | 78 | 345 | 0.0 | 2.6 | 0.00 | 0.05 | 0.02 | 91 | 1015.5 |
| 20260901150012 | 79 | 211 | 0.0 | 0.0 | 0.00 | 0.05 | 0.02 | 89 | 1015.5 |
| 20260901144508 | 79 | 211 | 0.0 | 0.0 | 0.00 | 0.05 | 0.02 | 87 | 1015.2 |
| 20260901143007 | 79 | 211 | 0.0 | 1.7 | 0.01 | 0.05 | 0.02 | 86 | 1015.2 |